Weather History for Gwinn, MI

Change the Weather History Date:

Thursday, December 27, 2012

  Actual Average (KESC) Record (KESC)
Temperature  
Mean Temperature 22 °F -  
Max Temperature 23 °F 26 °F 42 °F (2008)
Min Temperature 20 °F 12 °F -13 °F (1996)
Degree Days  
Heating Degree Days 44    
Moisture  
Dew Point 18 °F    
Average Humidity 83    
Maximum Humidity 87    
Minimum Humidity 76    
Precipitation  
Precipitation 0.00 in - - ()
Sea Level Pressure  
Sea Level Pressure 30.15 in    
Wind  
Wind Speed 11 mph (North)    
Max Wind Speed 17 mph    
Max Gust Speed 23 mph    
Visibility 10 miles    
Events Snow    
Averages and records for this station are not official NWS values.
T = Trace of Precipitation, MM = Missing Value Source: NWS Daily Summary

Daily Weather History Graph

Daily Weather History Graph

Search for Another Location

Airport:

Trip Planner

Search our weather history database for the weather conditions in past years. The results will help you decide how hot, cold, wet, or windy it might be!

Date:

Astronomy

Dec. 27, 2012 Rise Set
Actual Time 8:32 AM EST 5:09 PM EST
Civil Twilight 7:57 AM EST 5:44 PM EST
Nautical Twilight 7:19 AM EST 6:22 PM EST
Astronomical Twilight 6:42 AM EST 6:59 PM EST
Moon 4:54 PM EST (12/27) 7:41 AM EST (12/27)
Length of Visible Light 9h 47m
Length of Day
8h 37m
Full, 100% of the Moon is Illuminated
Dec 27
Full
Dec 28
Full
Jan 4
Last Quarter
Jan 11
New
Jan 18
First Quarter

Hourly Weather History & Observations

Time (EST) Temp. Windchill Dew Point Humidity Pressure Visibility Wind Dir Wind Speed Gust Speed Precip Events Conditions
12:17 AM 23.0 °F 13.1 °F 18.3 °F 82% 30.15 in 10.0 mi North 9.2 mph - N/A   Overcast
12:37 AM 23.5 °F 13.0 °F 17.4 °F 77% 30.15 in 10.0 mi North 10.4 mph - N/A   Overcast
12:57 AM 23.4 °F 11.1 °F 17.6 °F 79% 30.15 in 10.0 mi North 13.8 mph - N/A   Overcast
1:16 AM 23.2 °F 12.0 °F 18.1 °F 81% 30.15 in 10.0 mi North 11.5 mph - N/A   Overcast
1:37 AM 23.4 °F 12.2 °F 18.1 °F 80% 30.14 in 10.0 mi NNE 11.5 mph - N/A   Overcast
1:57 AM 23.0 °F 11.7 °F 16.5 °F 76% 30.14 in 10.0 mi NNE 11.5 mph - N/A   Overcast
2:16 AM 23.0 °F 11.1 °F 16.7 °F 77% 30.15 in 10.0 mi North 12.7 mph - N/A   Overcast
2:37 AM 23.0 °F 11.7 °F 17.6 °F 80% 30.15 in 10.0 mi NNE 11.5 mph - N/A   Overcast
2:56 AM 23.0 °F 10.6 °F 17.4 °F 79% 30.15 in 10.0 mi North 13.8 mph - N/A   Overcast
3:17 AM 22.8 °F 10.4 °F 17.2 °F 79% 30.16 in 10.0 mi North 13.8 mph - N/A   Overcast
3:36 AM 22.8 °F 12.9 °F 17.2 °F 79% 30.16 in 10.0 mi North 9.2 mph 12.7 mph N/A   Overcast
3:57 AM 22.6 °F 10.1 °F 17.4 °F 80% 30.16 in 10.0 mi North 13.8 mph 17.3 mph N/A   Overcast
4:17 AM 22.6 °F 11.3 °F 17.6 °F 81% 30.16 in 10.0 mi North 11.5 mph - N/A   Overcast
4:36 AM 22.6 °F 11.3 °F 17.6 °F 81% 30.16 in 10.0 mi NNE 11.5 mph - N/A   Overcast
4:57 AM 22.6 °F 10.7 °F 17.6 °F 81% 30.16 in 10.0 mi North 12.7 mph - N/A   Overcast
5:17 AM 22.6 °F 10.7 °F 18.0 °F 82% 30.15 in 10.0 mi North 12.7 mph - N/A   Overcast
5:37 AM 22.5 °F 9.4 °F 17.8 °F 82% 30.15 in 10.0 mi North 15.0 mph - N/A   Overcast
5:57 AM 22.5 °F 8.5 °F 18.0 °F 83% 30.15 in 10.0 mi North 17.3 mph 23.0 mph N/A   Overcast
6:50 AM 21.2 °F 7.8 °F 17.6 °F 86% 30.16 in 10.0 mi North 15.0 mph - N/A   Overcast
7:50 AM 21.2 °F 8.3 °F 17.6 °F 86% 30.17 in 10.0 mi North 13.8 mph 20.7 mph N/A   Overcast
8:50 AM 21.2 °F 8.9 °F 15.8 °F 80% 30.17 in 10.0 mi North 12.7 mph 18.4 mph N/A Snow Light Snow
9:55 AM 21.2 °F 10.1 °F 17.6 °F 86% 30.17 in 7.0 mi North 10.4 mph - N/A Snow Light Snow
10:55 AM 21.2 °F 7.3 °F 17.6 °F 86% 30.18 in 7.0 mi North 16.1 mph - N/A   Overcast
11:50 AM 23.0 °F 11.7 °F 17.6 °F 80% 30.17 in 10.0 mi North 11.5 mph - N/A   Overcast
12:50 PM 21.2 °F 7.8 °F 17.6 °F 86% 30.15 in 10.0 mi North 15.0 mph - N/A   Overcast
1:50 PM 21.2 °F 8.3 °F 17.6 °F 86% 30.14 in 10.0 mi North 13.8 mph - N/A   Overcast
3:50 PM 21.2 °F 10.9 °F 17.6 °F 86% 30.14 in 10.0 mi North 9.2 mph - N/A   Overcast
4:50 PM 21.2 °F 10.9 °F 17.6 °F 86% 30.14 in 10.0 mi NNW 9.2 mph - N/A   Overcast
5:50 PM 21.2 °F 12.6 °F 17.6 °F 86% 30.15 in 10.0 mi NNW 6.9 mph - N/A   Overcast
6:50 PM 21.2 °F 11.7 °F 17.6 °F 86% 30.14 in 10.0 mi NNW 8.1 mph - N/A   Overcast
8:50 PM 21.2 °F 14.9 °F 17.6 °F 86% 30.14 in 10.0 mi NNW 4.6 mph - N/A   Overcast
9:50 PM 21.2 °F 13.6 °F 17.6 °F 86% 30.14 in 10.0 mi WNW 5.8 mph - N/A   Overcast
10:17 PM 20.8 °F 12.1 °F 17.6 °F 87% 30.13 in 10.0 mi NW 6.9 mph - N/A   Overcast
10:37 PM 20.7 °F 13.0 °F 17.4 °F 87% 30.11 in 10.0 mi NNW 5.8 mph - N/A   Overcast
10:57 PM 20.8 °F 14.4 °F 17.6 °F 87% 30.11 in 10.0 mi NNW 4.6 mph - N/A   Overcast
11:17 PM 20.8 °F - 17.6 °F 87% 30.11 in 10.0 mi Calm Calm - N/A   Overcast
11:37 PM 20.8 °F - 17.6 °F 87% 30.11 in 10.0 mi Calm Calm - N/A   Overcast
11:57 PM 20.8 °F - 17.6 °F 87% 30.11 in 10.0 mi Calm Calm - N/A   Overcast